TimeCST,TemperatureF,Dew PointF,Humidity,Sea Level PressureIn,VisibilityMPH,Wind Direction,Wind SpeedMPH,Gust SpeedMPH,PrecipitationIn,Events,Conditions,WindDirDegrees,DateUTC
12:53 AM,45.0,39.0,80,30.36,10.0,North,10.4,-,N/A,,Clear,10,2012-11-13 06:53:00
1:53 AM,42.1,37.9,85,30.37,10.0,North,5.8,-,N/A,,Clear,360,2012-11-13 07:53:00
2:53 AM,41.0,37.0,86,30.38,10.0,North,8.1,-,N/A,,Clear,10,2012-11-13 08:53:00
3:53 AM,39.9,36.0,86,30.37,10.0,North,10.4,-,N/A,,Clear,10,2012-11-13 09:53:00
4:53 AM,39.0,35.1,86,30.38,10.0,North,10.4,-,N/A,,Clear,10,2012-11-13 10:53:00
5:53 AM,37.9,33.1,83,30.39,10.0,NNE,9.2,-,N/A,,Clear,20,2012-11-13 11:53:00
6:53 AM,37.9,32.0,79,30.40,10.0,North,9.2,-,N/A,,Clear,10,2012-11-13 12:53:00
7:53 AM,43.0,32.0,65,30.41,10.0,NNE,13.8,19.6,N/A,,Clear,20,2012-11-13 13:53:00
8:53 AM,48.0,28.9,48,30.40,10.0,NE,13.8,19.6,N/A,,Clear,40,2012-11-13 14:53:00
10:53 AM,55.0,28.0,35,30.38,10.0,NNE,16.1,23.0,N/A,,Clear,20,2012-11-13 16:53:00
11:53 AM,57.0,28.9,34,30.34,10.0,North,16.1,20.7,N/A,,Clear,10,2012-11-13 17:53:00
12:53 PM,57.9,30.0,35,30.30,10.0,North,12.7,-,N/A,,Clear,360,2012-11-13 18:53:00
1:53 PM,60.1,30.9,33,30.28,10.0,North,12.7,-,N/A,,Clear,360,2012-11-13 19:53:00
2:53 PM,61.0,33.1,35,30.27,10.0,North,12.7,-,N/A,,Clear,10,2012-11-13 20:53:00
3:53 PM,55.9,34.0,44,30.27,10.0,North,8.1,-,N/A,,Clear,10,2012-11-13 21:53:00
4:53 PM,53.1,37.0,55,30.28,10.0,NNW,3.5,-,N/A,,Clear,340,2012-11-13 22:53:00
5:53 PM,46.9,41.0,80,30.28,10.0,North,3.5,-,N/A,,Clear,360,2012-11-13 23:53:00
6:53 PM,46.0,39.9,79,30.31,10.0,Calm,Calm,-,N/A,,Clear,0,2012-11-14 00:53:00
7:53 PM,45.0,39.0,80,30.32,10.0,Calm,Calm,-,N/A,,Clear,0,2012-11-14 01:53:00
8:53 PM,44.1,37.9,79,30.31,10.0,North,4.6,-,N/A,,Clear,10,2012-11-14 02:53:00
9:53 PM,46.0,37.0,71,30.31,10.0,North,3.5,-,N/A,,Clear,360,2012-11-14 03:53:00
10:53 PM,44.1,37.0,76,30.30,10.0,North,4.6,-,N/A,,Clear,10,2012-11-14 04:53:00
11:53 PM,42.1,37.9,85,30.29,10.0,Calm,Calm,-,N/A,,Clear,0,2012-11-14 05:53:00